Regional Weather Roundup
Issued by NWS Portland, ME

Home | Current Version | Previous Version | Text Only | Print | Product List | Glossary On
Versions: 1 2 3 4 5 6 7 8 9 10 11 12 13 14 15 16 17 18 19 20 21 22 23 24 25 26 27 28 29 30 31 32 33 34 35 36 37 38 39 40 41 42 43 44 45 46 47 48 49 50
475
ASUS41 KGYX 241210
RWRGYX
WEATHER ROUNDUP FOR MAINE AND NEW HAMPSHIRE
NATIONAL WEATHER SERVICE GRAY ME
800 AM EDT TUE MAY 24 2016

MEZ002-005-006-010-012-015-018-020-021-024-026-027-029-241300-
MAINE

CITY           SKY/WX    TMP DP  RH WIND       PRES   REMARKS
PORTLAND       CLOUDY    56  53  90 NE10      29.97R
6HR MIN TEMP:  53; 6HR MAX TEMP:  56;

SANFORD        CLOUDY    54  50  87 NE10G18   29.96S
BAR HARBOR     CLOUDY    53  52  96 SE3       30.00S
WISCASSET      CLOUDY    59  53  80 VRB6      29.98R
6HR MIN TEMP:  53; 6HR MAX TEMP:  59;

ROCKLAND       CLOUDY    54  52  93 NE7       29.98R
FRYEBURG       PTSUNNY   60  52  74 N6        29.96F
6HR MIN TEMP:  49; 6HR MAX TEMP:  61;

LEWISTONAUBURN CLOUDY    57  52  82 NE12      29.97S
AUGUSTA        CLOUDY    57  53  86 NE8       29.98R
6HR MIN TEMP:  53; 6HR MAX TEMP:  57;

BANGOR         CLOUDY    60  53  77 NE5       30.00S
6HR MIN TEMP:  55; 6HR MAX TEMP:  60;

GREENVILLE       N/A     58  50  75 VRB3      29.99R
6HR MIN TEMP:  49; 6HR MAX TEMP:  58;

MILLINOCKET    SUNNY     61  54  77 E3        30.02R
6HR MIN TEMP:  49; 6HR MAX TEMP:  61;

HOULTON        MOSUNNY   59  54  83 VRB5      30.01R
6HR MIN TEMP:  47; 6HR MAX TEMP:  59;

PRESQUE ISLE   CLOUDY    55  54  94 SE3       30.01R
6HR MIN TEMP:  48; 6HR MAX TEMP:  57;

FRENCHVILLE    SUNNY     60  51  72 SE6       29.99S
6HR MIN TEMP:  53; 6HR MAX TEMP:  60;

CARIBOU        SUNNY     61  54  77 SE5       29.99S
6HR MIN TEMP:  53; 6HR MAX TEMP:  61;

$$

NHZ002-005-008-009-011-012-014-241300-
NEW HAMPSHIRE

CITY           SKY/WX    TMP DP  RH WIND       PRES   REMARKS
PORTSMOUTH     CLOUDY    54  52  95 NE8G18    29.93R
ROCHESTER      CLOUDY    56  52  86 NE9       29.94S
6HR MIN TEMP:  55; 6HR MAX TEMP:  57; 6HR PCP: TRACE;

NASHUA         CLOUDY    56  54  93 SE3       29.94R
MANCHESTER     LGT RAIN  57  53  86 NE7       29.93R FOG
6HR MIN TEMP:  56; 6HR MAX TEMP:  61; 6HR PCP:  0.11;

CONCORD        LGT RAIN  58  54  86 N5        29.93S
6HR MIN TEMP:  56; 6HR MAX TEMP:  60; 6HR PCP:  0.02;

LACONIA        CLOUDY    57  50  77 E3        29.95R
PLYMOUTH       CLOUDY    59  52  77 CALM      29.94S
BERLIN         MOSUNNY   55  46  71 CALM      29.98S
6HR MIN TEMP:  41; 6HR MAX TEMP:  55;

WHITEFIELD     PTSUNNY   60  47  61 CALM      29.95S
6HR MIN TEMP:  45; 6HR MAX TEMP:  60;

JAFFREY        LGT RAIN  54  53  97 CALM      29.94R
6HR MIN TEMP:  53; 6HR MAX TEMP:  56; 6HR PCP:  0.35;

KEENE          CLOUDY    55  54  94 CALM      29.95S
LEBANON        CLOUDY    58  48  69 CALM      29.94R
6HR MIN TEMP:  51; 6HR MAX TEMP:  58; 6HR PCP: TRACE;

MT WASHINGTON  MOSUNNY   43  39  87 E28         N/A
6HR MIN TEMP:  42; 6HR MAX TEMP:  45;

$$

VTZ005-007-008-241300-
VERMONT

CITY           SKY/WX    TMP DP  RH WIND       PRES   REMARKS
ST JOHNSBURY     N/A     55  44  66 MISG      29.93F
MONTPELIER     CLOUDY    54  45  71 CALM      29.98S
BURLINGTON     FAIR      59  45  59 E3        29.92S
$$

MAZ007-012-024-CTZ003-RIZ002-NYZ038-NYZ072-241300-
SOUTHERN NEW ENGLAND AND NY

CITY           SKY/WX    TMP DP  RH WIND       PRES   REMARKS
BOSTON         LGT RAIN  53  51  93 E9        29.93R FOG
NANTUCKET      CLOUDY    57  56  96 SE13      29.85R FOG
PROVIDENCE     CLOUDY    55  52  89 NE14      29.88S
HARTFORD       LGT RAIN  57  54  89 NE9       29.89S FOG
ALBANY         CLOUDY    60  51  72 N3        29.91R
NEW YORK CITY  LGT RAIN  61  61 100 W6        29.90R
$$

ANZ081-ANZ082-ANZ150-NHZ014-MEZ023>029-241300-
COASTAL MARINE OBSERVATIONS

STATION/POSITION TIME  TEMP    WIND        PRES    WAVE
                       AIR SEA DIR/SP/G            HT/PER
                 (UTC) (F)     (DEG/KT/KT) (MB)    (FT/S)
MOUNT DESERT ROC 1200   45      60/ 15/ 16 1015.7R
MATINICUS ROCK   1200   47      60/ 14/ 15 1014.8R
ISLE OF SHOALS   1200   51      50/ 15/ 17 1013.3R
JEFFREYS LEDGE   1108      51                N/A     5/10
CASHES LEDGE BUO 1150   48 49   60/ 16/ 17 1013.7S   5/ 9
GEORGES BANK BUO 1150   54 48              1013.5R   6/ 9
$$

.............KEY..............
   WCI - WIND CHILL
   TC  - TEMPERATURE IN CELSIUS
   VSB - VISIBILITY IN MILES
   HX  - HEAT INDEX
   FAIR- INDICATES FEW OR NO CLOUDS BELOW 12,000 FT, WITH NO
         SIGNIFICANT WEATHER AND/OR OBSTRUCTIONS TO VISIBILITY.






USA.gov is the U.S. government's official web portal to all federal, state and local government web resources and services.